CZ-3B DEB, 40843

Orbit data source: Space-Track

CZ-3B DEB, 40843 is space debris in HEO originally from a launch on Mon, 19 Dec 2011 UTC launched from the Xichang Space Center, China (XSC). Debris objects in space refer to the collection of defunct objects orbiting the Earth. Examples of debris include non-operational satellites, rocket bodies, and fragments generated from explosions, collisions, or faulty payload assembly.

Loading next visibility...
Identifier
40843, 2011-077Y
Orbit
HEO
Country
Flag of CNCN / PRC
Related business
Manufacturer
CALT
Mission
Spacecraft
Bus & Motor
Unknown
Mass
Unknown
Launch date (UTC)
2011-12-19 (14 years ago)
Launch vehicle
Unknown
Launch site
Xichang Space Center, China (XSC)
Object type
Payload
Rocket body
Debris
Shape & HBR
Unknown shape, 0.1 m
Radar Cross Section
Medium (>0.1 m² and <1 m²)

Expand to show TLE details & history
Last TLE update: 12 hours ago

TLE from 12 hours ago
0 CZ-3B DEB
1 40843U 11077Y   25354.17562441  .00049613  00000-0  49363-1 0  9993
2 40843  21.6862 193.1227 7295254  90.7572 345.2392  2.22693234 90353
Epoch: 2025-12-20T04:12Z
TLE epoch observation values (Epoch: 2025-12-20T04:12:53.949Z)
Latitude
-0.00044°
Longitude
40.99115°
Altitude
5,265.75 km
Speed
7.237 km/s
True Right ascension
12h 52m 53s
True Declination
0° 00' 02"
Sunlit
Object was in daylight at epoch
Visualization orbit readout
Latitude
Unknown
Longitude
Unknown
Altitude
Unknown
Speed
Unknown
Apparent Right ascension
Unknown
Apparent Declination
Unknown
Sunlit
N/A
Visualization observer readout
Local Sidereal Time
15:12:12
Azimuth
Unknown
Elevation
Unknown
Doppler factor
Unknown
Orbital elements
Apogee altitude
36,470.32 km
Perigee altitude
322.788 km
Semi-major axis
24,774.691 km
Eccentricity
0.72953
Inclination
21.6862°
RAAN
193.1227°
Arg. of periapsis
90.7572°
True anomaly
269.39271°
Mean anomaly
345.2392°
Eccentric anomaly
316.42965°
Mean motion
0.55658 °/min
Orbital period
646.8 mins
BSTAR
0.049363
Loading maneuver chart data...
Computing Atmospheric mass density...
Loading historical data...
Loading historical data...
Loading historical data...
Loading historical data...
Loading historical data...
Loading historical data...
Loading historical data...

Documentation

Showing up to 5 results
|